Wind_Speed
20 21 21 22 23 23 23 23 24 24 25 26 25 25 25 26 27 27 29 31 33 36 37 40 42 45 48 50 52 54 55 56 58 59 59 59 57 57 56 54 53 52 52 52
16 18 18 18 18 19 19 19 19 20 20 20 21 21 21 21 22 22 23 24 26 28 31 34 36 38 41 44 47 50 52 53 55 57 57 57 57 56 56 55 55 54 53 53
12 12 13 14 14 14 14 15 15 15 14 15 15 15 16 17 17 18 19 19 20 21 23 26 29 31 33 36 40 44 46 48 50 53 55 55 54 53 52 52 52 53 54 53
10 9 9 9 9 8 9 10 10 10 10 11 12 12 12 13 14 15 16 16 16 17 18 21 23 26 28 29 32 34 38 42 45 48 51 53 53 51 49 49 49 50 51 52
7 7 7 7 6 6 6 6 7 8 8 9 9 9 9 10 10 10 11 12 12 12 13 15 18 21 23 25 28 29 32 35 38 41 44 47 48 49 49 48 47 48 50 51
7 7 6 6 5 4 4 4 5 5 5 6 6 6 6 6 6 7 9 9 9 9 10 10 11 15 18 21 24 26 29 31 33 34 38 42 44 45 47 47 47 47 49 50
6 6 6 5 4 3 2 2 2 2 3 2 2 3 3 5 6 6 6 6 5 5 5 5 6 8 11 15 18 21 24 27 28 30 33 36 38 39 41 43 44 46 47 48
6 6 5 4 3 1 1 1 0 0 0 1 2 2 3 5 5 5 5 6 5 3 2 2 2 3 6 9 12 15 18 21 23 26 28 30 32 35 38 40 41 43 44 46
6 6 5 3 2 2 1 1 1 1 2 3 3 3 4 4 5 5 5 5 6 5 4 3 2 1 2 5 7 9 11 14 18 20 23 25 27 30 33 37 38 39 41 42
7 6 6 5 4 4 3 3 3 3 4 4 5 5 5 4 5 5 5 5 5 5 4 4 3 2 2 2 4 5 7 8 11 15 18 21 23 25 28 31 33 35 36 37
7 7 6 6 5 5 5 4 5 5 5 5 6 5 6 5 6 6 6 6 7 6 5 4 3 2 1 2 2 3 5 7 9 12 15 19 21 23 26 28 31 33 34 34
8 7 6 6 6 5 5 5 5 5 5 5 6 6 6 6 6 6 7 7 8 7 6 5 4 3 1 0 1 3 4 6 8 11 14 17 19 22 25 27 29 30 32 34
8 7 6 6 6 6 6 5 5 4 4 4 4 5 5 5 6 6 7 7 7 7 7 6 5 3 2 2 3 4 5 7 9 11 14 17 18 21 24 26 28 29 31 34
7 6 5 5 4 4 4 3 2 2 3 3 4 5 5 6 6 7 7 7 7 7 8 7 6 5 5 5 5 6 7 8 10 11 14 16 19 21 24 27 29 31 33 35
5 4 4 3 2 2 3 3 2 3 3 4 5 6 6 6 6 7 7 7 8 8 8 8 8 8 8 9 9 10 11 12 14 15 16 19 21 24 26 28 31 33 36 38
2 2 1 1 2 3 4 4 4 4 5 6 7 7 7 8 8 8 8 9 9 10 10 10 10 11 11 12 13 13 15 16 18 19 21 22 24 26 29 31 33 36 38 40
2 2 2 3 3 4 5 5 6 6 7 8 8 8 8 9 9 9 9 10 11 12 12 13 14 14 14 15 17 18 19 21 23 25 26 27 29 31 33 35 37 39 41 43
4 4 4 4 5 6 5 6 6 7 7 8 8 9 9 10 10 11 12 12 13 14 15 16 17 17 18 19 20 21 22 24 26 28 30 31 33 35 37 39 41 42 44 46
5 5 5 5 6 6 7 7 8 8 9 9 10 10 11 12 12 13 14 15 16 17 18 18 19 20 20 21 23 25 27 28 30 31 33 35 36 38 40 41 43 45 46 47
6 7 7 7 8 8 8 8 9 9 10 11 11 12 13 14 14 15 16 17 18 19 20 21 22 23 24 25 27 29 31 33 34 35 37 39 40 42 43 44 45 47 49 50
9 10 10 10 11 10 10 11 11 12 13 13 14 15 16 16 17 18 19 20 21 22 23 24 25 26 28 29 31 33 35 36 38 39 41 43 44 46 47 48 50 51 53 54
11 12 12 12 12 13 13 13 14 14 15 16 17 17 18 19 20 21 22 23 24 25 26 27 28 30 32 33 35 36 38 40 42 43 45 47 49 50 51 52 53 55 56 57
13 13 14 14 14 15 15 16 17 17 18 19 20 21 21 22 22 23 24 25 27 28 29 31 32 34 36 37 38 40 41 44 46 48 50 51 52 54 54 55 56 56 56 57
15 16 16 16 17 18 18 19 19 20 20 21 22 23 24 24 25 26 27 28 30 31 33 34 35 37 38 40 42 44 46 48 50 51 52 54 54 55 55 56 56 56 56 56
17 17 17 17 18 19 20 21 21 22 22 23 23 25 26 27 28 29 30 31 32 34 35 37 38 40 41 43 45 47 49 51 52 53 54 55 55 55 54 55 55 55 55 55
18 19 19 19 19 20 20 22 23 24 24 25 26 27 28 30 31 32 32 34 35 36 38 39 41 43 44 46 47 49 51 52 53 54 54 54 54 53 54 54 53 54 54 53
Wind_Direction
234 238 241 245 249 254 258 260 263 265 267 268 269 269 271 273 271 269 267 265 263 260 257 255 253 251 249 247 245 243 243 241 239 237 236 236 236 236 235 236 236 236 237 238
230 235 240 246 252 255 256 258 261 264 267 268 269 271 274 276 273 273 273 271 268 262 258 255 253 251 250 248 246 244 243 242 239 237 236 236 235 235 235 236 236 236 237 238
222 230 237 245 249 251 250 253 255 258 262 269 271 275 278 279 279 280 279 277 276 269 260 254 250 248 248 248 246 244 242 240 238 236 235 236 235 235 235 236 236 236 236 237
216 221 227 230 232 232 242 248 250 251 258 269 274 282 286 285 284 285 285 284 283 277 268 263 254 248 245 244 242 242 241 239 238 238 237 236 236 235 235 235 236 236 236 237
197 203 207 211 216 222 236 243 248 255 268 276 281 285 288 293 292 293 295 294 291 289 284 273 259 249 245 243 241 240 239 237 237 237 237 236 234 234 235 235 234 235 235 236
173 181 188 196 201 208 221 245 259 266 277 288 290 292 296 304 304 312 313 308 298 294 292 285 266 250 246 244 242 242 239 238 236 235 235 234 233 234 235 235 236 237 237 238
152 162 167 170 175 185 212 251 275 281 292 311 309 316 325 338 333 333 329 329 321 302 302 301 280 255 243 242 242 241 236 236 236 236 234 233 233 233 234 235 237 239 240 240
148 151 147 148 158 180 199 235 299 310 27 12 346 349 348 353 352 350 355 360 5 353 351 351 336 270 243 236 236 235 233 232 234 235 234 233 235 235 234 234 236 238 240 241
129 130 131 136 136 136 132 102 81 74 61 43 40 33 16 11 13 18 18 16 18 20 14 16 22 31 227 231 231 226 229 232 235 236 235 234 234 237 236 236 237 239 240 242
111 110 104 101 105 105 101 93 81 72 60 57 58 50 44 33 28 27 20 15 17 18 17 19 32 68 116 178 197 206 217 232 238 237 238 237 237 238 238 239 239 241 242 244
102 103 100 93 88 97 93 84 79 77 67 66 65 55 44 34 32 27 24 22 22 31 33 31 39 61 123 146 171 208 234 244 246 241 241 241 241 241 242 244 244 244 245 246
96 97 96 91 88 90 84 82 83 78 76 69 62 53 38 30 24 17 16 19 22 23 23 24 17 11 357 217 238 244 251 250 251 247 247 244 243 245 246 248 249 247 248 250
92 91 90 89 85 81 81 86 77 71 66 54 43 36 21 16 10 11 15 17 20 17 10 14 17 358 331 315 289 276 264 263 263 261 258 253 250 249 251 252 252 252 254 256
81 81 83 80 78 74 71 66 58 45 28 21 8 3 4 1 1 4 4 2 4 2 359 360 358 345 328 312 299 289 287 284 278 275 269 264 261 259 257 256 256 256 258 259
76 73 80 76 63 36 17 10 353 333 333 341 341 339 342 343 341 343 343 342 344 347 345 340 335 326 318 312 303 297 295 290 288 286 282 277 274 270 268 267 266 264 263 263
65 44 11 341 312 309 313 314 315 315 315 318 320 322 324 324 325 326 329 329 332 334 336 329 322 319 314 310 305 300 299 296 292 291 288 286 283 279 276 274 271 269 268 267
352 334 320 305 299 305 304 302 299 299 306 311 313 312 312 315 317 316 316 317 320 320 321 322 319 317 315 311 306 303 302 299 296 295 293 290 287 284 280 278 276 275 274 273
330 319 311 305 300 304 305 301 301 302 304 307 308 309 308 308 310 309 308 309 310 311 312 313 313 313 311 310 307 305 303 301 300 298 295 293 291 289 287 283 280 279 276 275
316 309 302 298 297 300 300 297 294 292 295 297 300 302 303 304 307 306 306 306 307 308 310 311 310 308 308 308 306 305 304 303 302 301 300 297 295 292 290 287 285 282 280 279
305 301 298 295 296 299 298 297 296 296 295 296 298 299 300 301 303 304 305 305 305 306 307 308 309 309 308 307 307 306 305 304 303 302 300 299 298 296 294 291 289 286 284 282
301 299 296 294 296 297 297 297 296 297 298 297 298 299 300 300 301 302 303 303 303 304 305 306 307 307 307 307 307 306 305 305 304 303 302 300 299 297 295 293 290 288 287 284
304 299 295 294 293 293 293 295 295 295 295 296 297 298 299 299 300 300 301 302 302 302 303 304 305 305 305 305 306 306 306 306 305 304 302 301 300 299 297 295 293 291 289 286
305 300 297 295 294 293 293 294 294 293 294 296 297 298 299 299 300 300 300 301 301 301 302 302 303 304 305 305 306 306 306 307 306 305 304 303 301 300 299 297 296 294 292 290
300 297 297 294 292 293 294 295 296 296 296 297 298 299 300 301 300 300 301 301 301 301 302 302 303 304 305 306 306 307 307 307 307 306 305 304 303 302 301 300 298 297 295 293
304 302 300 298 296 294 295 294 295 297 297 298 299 300 301 302 302 302 301 302 302 303 303 303 303 304 305 306 307 307 308 308 309 308 307 306 306 305 304 302 301 299 298 296
304 305 305 303 299 297 296 296 297 298 299 300 300 300 300 301 302 303 303 303 303 304 304 304 304 305 305 307 308 309 309 310 310 310 309 308 307 307 306 305 304 302 301 298
Height
5638 5642 5644 5647 5649 5651 5652 5653 5653 5653 5653 5654 5653 5653 5652 5649 5648 5647 5645 5645 5644 5645 5645 5646 5648 5651 5655 5659 5663 5668 5673 5679 5685 5692 5699 5705 5711 5717 5722 5728 5732 5736 5741 5745
5636 5639 5641 5643 5645 5646 5647 5648 5648 5649 5648 5649 5648 5648 5646 5644 5642 5641 5639 5638 5637 5637 5637 5637 5639 5641 5644 5648 5652 5657 5662 5667 5673 5680 5687 5693 5700 5705 5712 5716 5721 5726 5731 5736
5634 5637 5638 5640 5641 5642 5643 5644 5645 5645 5645 5645 5645 5644 5642 5640 5638 5636 5634 5633 5632 5631 5630 5630 5631 5632 5635 5638 5642 5646 5651 5657 5662 5669 5675 5681 5688 5694 5701 5706 5711 5716 5721 5725
5633 5635 5637 5638 5639 5640 5641 5642 5642 5642 5643 5642 5642 5641 5639 5637 5635 5633 5631 5629 5627 5626 5625 5624 5624 5626 5628 5631 5634 5638 5642 5647 5653 5658 5664 5671 5678 5685 5691 5696 5701 5705 5710 5715
5633 5634 5636 5638 5639 5639 5640 5641 5641 5641 5641 5641 5640 5639 5638 5634 5633 5631 5628 5626 5624 5623 5621 5620 5619 5620 5622 5625 5627 5631 5635 5639 5645 5650 5656 5662 5669 5675 5681 5686 5691 5696 5700 5705
5633 5635 5636 5638 5638 5639 5640 5640 5640 5640 5640 5640 5638 5637 5636 5633 5631 5629 5627 5625 5622 5620 5618 5617 5616 5616 5618 5620 5622 5625 5629 5633 5638 5643 5648 5654 5661 5666 5672 5677 5682 5686 5691 5695
5634 5636 5637 5638 5639 5639 5640 5641 5641 5640 5639 5639 5637 5636 5636 5633 5631 5629 5626 5624 5621 5620 5618 5616 5615 5614 5615 5617 5619 5622 5625 5628 5633 5637 5642 5648 5653 5658 5663 5668 5673 5678 5682 5686
5636 5637 5638 5639 5640 5640 5640 5641 5642 5641 5640 5639 5637 5636 5636 5633 5631 5629 5626 5624 5622 5620 5618 5617 5615 5614 5615 5616 5617 5619 5622 5625 5629 5633 5637 5642 5647 5651 5656 5660 5664 5669 5673 5677
5637 5639 5639 5640 5640 5641 5641 5641 5641 5641 5640 5639 5638 5637 5636 5634 5632 5630 5628 5626 5624 5622 5620 5618 5617 5615 5615 5616 5617 5618 5620 5623 5626 5630 5633 5637 5641 5645 5649 5653 5657 5660 5664 5667
5640 5641 5641 5642 5642 5642 5643 5642 5642 5642 5641 5640 5640 5638 5637 5635 5633 5631 5629 5627 5625 5623 5622 5620 5618 5617 5617 5616 5617 5619 5621 5623 5625 5627 5630 5633 5637 5640 5643 5647 5650 5653 5655 5658
5642 5644 5644 5644 5644 5644 5644 5644 5643 5643 5642 5642 5641 5642 5639 5637 5635 5633 5631 5629 5627 5625 5624 5622 5620 5619 5619 5618 5618 5619 5621 5622 5623 5625 5627 5630 5632 5635 5638 5640 5643 5646 5648 5650
5645 5646 5646 5646 5646 5646 5646 5645 5645 5645 5644 5643 5642 5645 5640 5638 5636 5635 5633 5631 5629 5627 5625 5623 5622 5621 5620 5620 5620 5621 5621 5622 5622 5623 5624 5626 5628 5630 5633 5635 5637 5639 5640 5642
5649 5649 5649 5649 5651 5650 5648 5648 5647 5647 5646 5645 5644 5646 5641 5640 5638 5636 5635 5633 5631 5629 5627 5625 5624 5623 5622 5622 5621 5621 5621 5621 5621 5621 5621 5622 5623 5625 5626 5628 5629 5630 5632 5632
5652 5652 5652 5652 5651 5650 5650 5650 5649 5648 5648 5647 5646 5645 5643 5641 5639 5638 5636 5634 5632 5630 5628 5626 5625 5624 5623 5622 5622 5621 5620 5619 5619 5619 5618 5618 5619 5619 5619 5620 5621 5621 5622 5622
5654 5654 5653 5653 5653 5652 5652 5651 5650 5649 5649 5648 5647 5645 5644 5642 5640 5639 5637 5635 5633 5631 5629 5627 5625 5624 5623 5622 5621 5619 5618 5617 5617 5616 5615 5614 5614 5613 5613 5612 5612 5612 5611 5611
5656 5656 5655 5655 5654 5653 5653 5652 5651 5650 5649 5648 5647 5646 5643 5642 5640 5639 5637 5635 5633 5631 5629 5626 5624 5623 5621 5620 5618 5617 5616 5614 5613 5611 5610 5608 5607 5606 5604 5603 5602 5601 5600 5598
5657 5657 5657 5656 5655 5654 5654 5652 5651 5650 5649 5647 5646 5646 5643 5642 5640 5638 5636 5634 5632 5630 5628 5626 5623 5621 5619 5618 5616 5614 5612 5610 5608 5605 5603 5600 5598 5596 5594 5592 5590 5588 5587 5585
5658 5657 5657 5656 5656 5654 5656 5652 5651 5650 5648 5647 5645 5644 5642 5641 5639 5637 5635 5633 5631 5629 5626 5624 5621 5619 5616 5614 5611 5609 5606 5604 5601 5598 5595 5592 5589 5586 5582 5580 5577 5575 5572 5570
5658 5657 5656 5656 5655 5654 5654 5652 5650 5649 5648 5646 5644 5643 5641 5639 5637 5635 5633 5631 5628 5626 5623 5621 5618 5615 5613 5610 5607 5604 5601 5597 5594 5590 5586 5582 5578 5575 5571 5567 5563 5560 5557 5554
5658 5657 5657 5655 5654 5653 5654 5651 5649 5649 5647 5645 5643 5641 5639 5637 5635 5634 5630 5627 5625 5623 5620 5617 5614 5611 5608 5605 5601 5598 5594 5590 5585 5581 5576 5571 5567 5562 5558 5553 5549 5544 5540 5537
5658 5657 5655 5654 5652 5652 5651 5649 5648 5647 5646 5643 5640 5638 5636 5634 5632 5630 5627 5624 5621 5618 5615 5612 5609 5605 5602 5598 5594 5590 5585 5581 5576 5570 5565 5559 5554 5549 5544 5538 5533 5528 5523 5519
5656 5655 5654 5652 5651 5652 5648 5646 5645 5644 5641 5639 5637 5635 5633 5630 5628 5625 5622 5619 5616 5613 5610 5606 5603 5599 5595 5591 5586 5581 5576 5571 5565 5559 5553 5547 5541 5534 5528 5522 5516 5510 5504 5499
5654 5653 5651 5651 5651 5647 5645 5643 5642 5640 5638 5635 5633 5631 5628 5626 5623 5620 5617 5614 5611 5607 5604 5600 5596 5591 5587 5582 5577 5572 5566 5560 5554 5547 5540 5533 5526 5518 5511 5504 5497 5491 5484 5478
5651 5649 5648 5646 5645 5643 5641 5639 5637 5635 5633 5630 5628 5626 5623 5620 5617 5614 5611 5607 5604 5600 5596 5592 5588 5583 5578 5572 5567 5561 5555 5548 5541 5533 5526 5518 5510 5502 5494 5486 5478 5471 5464 5458
5648 5645 5644 5642 5641 5638 5636 5634 5632 5630 5627 5625 5623 5620 5617 5614 5611 5608 5604 5600 5596 5592 5588 5584 5579 5574 5568 5562 5556 5549 5542 5535 5527 5518 5510 5502 5493 5485 5478 5469 5461 5453 5446 5438
5644 5642 5639 5638 5636 5634 5632 5629 5627 5624 5622 5619 5617 5614 5611 5607 5604 5600 5596 5592 5588 5584 5579 5574 5569 5564 5558 5551 5545 5537 5529 5521 5513 5504 5495 5487 5478 5470 5462 5454 5446 5436 5429 5421